When you browse on this site, cookies collect data to enhance your experience and personalize the content and advertising you see.
Visit our Privacy Policy to learn more. By continuing to use the site, you agree to this use of cookies and data.

Stündliche Wetter Mercaderes

Heute, 5 August, Mittwoch

Zeit Temperatur Niederschläge Wind Luftdruck Luftfeuchtigkeit
00:00 +21°C° 0.1 mm 1 m/S 667 mmHg 77%
01:00 +21°C° 0.1 mm 1 m/S 666 mmHg 77%
02:00 +20°C° 0 mm 1 m/S 666 mmHg 76%
03:00 +20°C° 0 mm 1 m/S 665 mmHg 76%
04:00 +20°C° 0 mm 1 m/S 665 mmHg 75%
05:00 +20°C° 0 mm 1 m/S 665 mmHg 74%
06:00 +20°C° 0 mm 1 m/S 666 mmHg 73%
07:00 +20°C° 0 mm 2 m/S 666 mmHg 71%
08:00 +23°C° 0 mm 1 m/S 667 mmHg 63%
09:00 +25°C° 0 mm 1 m/S 668 mmHg 55%
10:00 +27°C° 0 mm 1 m/S 668 mmHg 46%
11:00 +29°C° 0 mm 1 m/S 668 mmHg 43%
12:00 +30°C° 0 mm 1 m/S 668 mmHg 41%
13:00 +31°C° 0 mm 1 m/S 668 mmHg 38%
14:00 +30°C° 0.1 mm 1 m/S 667 mmHg 44%
15:00 +28°C° 0.1 mm 2 m/S 666 mmHg 50%
16:00 +27°C° 0.1 mm 2 m/S 665 mmHg 56%
17:00 +25°C° 0.1 mm 2 m/S 665 mmHg 63%
18:00 +24°C° 0.1 mm 2 m/S 665 mmHg 70%
19:00 +21°C° 0.1 mm 2 m/S 665 mmHg 78%
20:00 +22°C° 0 mm 1 m/S 666 mmHg 78%
21:00 +22°C° 0 mm 1 m/S 666 mmHg 78%
22:00 +22°C° 0 mm 1 m/S 667 mmHg 78%
23:00 +21°C° 0 mm 1 m/S 666 mmHg 79%

Morgen, 6 August, Donnerstag

Zeit Temperatur Niederschläge Wind Luftdruck Luftfeuchtigkeit
00:00 +21°C° 0 mm 1 m/S 666 mmHg 80%
01:00 +21°C° 0 mm 1 m/S 665 mmHg 81%
02:00 +21°C° 0 mm 1 m/S 665 mmHg 81%
03:00 +20°C° 0 mm 1 m/S 665 mmHg 82%
04:00 +20°C° 0 mm 1 m/S 664 mmHg 83%
05:00 +21°C° 0 mm 1 m/S 665 mmHg 82%
06:00 +21°C° 0 mm 1 m/S 665 mmHg 81%
07:00 +21°C° 0 mm 1 m/S 665 mmHg 80%
08:00 +23°C° 0 mm 1 m/S 666 mmHg 72%
09:00 +25°C° 0 mm 1 m/S 667 mmHg 64%
10:00 +27°C° 0 mm 1 m/S 668 mmHg 56%
11:00 +29°C° 0 mm 1 m/S 668 mmHg 51%
12:00 +30°C° 0 mm 1 m/S 668 mmHg 46%
13:00 +31°C° 0 mm 1 m/S 668 mmHg 41%
14:00 +30°C° 0.1 mm 1 m/S 667 mmHg 43%
15:00 +30°C° 0.1 mm 2 m/S 666 mmHg 46%
16:00 +29°C° 0.1 mm 2 m/S 666 mmHg 49%
17:00 +27°C° 0.1 mm 2 m/S 666 mmHg 58%
18:00 +25°C° 0.1 mm 2 m/S 665 mmHg 67%
19:00 +23°C° 0.1 mm 2 m/S 665 mmHg 75%
20:00 +21°C° 0 mm 2 m/S 666 mmHg 77%
21:00 +22°C° 0 mm 1 m/S 666 mmHg 79%
22:00 +22°C° 0 mm 1 m/S 666 mmHg 81%
23:00 +22°C° 0 mm 1 m/S 666 mmHg 82%

übermorgen, 7 August, Freitag

Zeit Temperatur Niederschläge Wind Luftdruck Luftfeuchtigkeit
00:00 +21°C° 0 mm 1 m/S 666 mmHg 82%
01:00 +21°C° 0 mm 1 m/S 666 mmHg 83%
02:00 +21°C° 0 mm 1 m/S 665 mmHg 83%
03:00 +21°C° 0 mm 1 m/S 665 mmHg 83%
04:00 +21°C° 0 mm 1 m/S 665 mmHg 83%
05:00 +21°C° 0 mm 1 m/S 665 mmHg 81%
06:00 +21°C° 0 mm 1 m/S 665 mmHg 80%
07:00 +22°C° 0 mm 1 m/S 666 mmHg 78%
08:00 +24°C° 0 mm 1 m/S 667 mmHg 70%
09:00 +26°C° 0 mm 1 m/S 667 mmHg 61%
10:00 +28°C° 0 mm 1 m/S 668 mmHg 53%
11:00 +29°C° 0 mm 1 m/S 668 mmHg 49%
12:00 +30°C° 0 mm 2 m/S 668 mmHg 46%
13:00 +30°C° 0 mm 2 m/S 668 mmHg 43%
14:00 +30°C° 0.1 mm 2 m/S 667 mmHg 44%
15:00 +30°C° 0.1 mm 2 m/S 667 mmHg 45%
16:00 +29°C° 0.1 mm 2 m/S 666 mmHg 46%
17:00 +27°C° 0.1 mm 2 m/S 666 mmHg 54%
18:00 +25°C° 0.1 mm 2 m/S 666 mmHg 61%
19:00 +23°C° 0.1 mm 2 m/S 666 mmHg 69%
20:00 +23°C° 0 mm 2 m/S 666 mmHg 72%
21:00 +22°C° 0 mm 1 m/S 666 mmHg 75%
22:00 +22°C° 0 mm 1 m/S 667 mmHg 78%
23:00 +21°C° 0 mm 1 m/S 666 mmHg 79%

8 August, Samstag

Zeit Temperatur Niederschläge Wind Luftdruck Luftfeuchtigkeit
00:00 +21°C° 0 mm 1 m/S 666 mmHg 80%
01:00 +21°C° 0 mm 1 m/S 666 mmHg 80%
02:00 +21°C° 0 mm 1 m/S 666 mmHg 80%
03:00 +21°C° 0 mm 1 m/S 665 mmHg 81%
04:00 +20°C° 0 mm 1 m/S 665 mmHg 81%
05:00 +21°C° 0 mm 1 m/S 666 mmHg 79%
06:00 +21°C° 0 mm 1 m/S 666 mmHg 77%
07:00 +22°C° 0 mm 1 m/S 666 mmHg 76%
08:00 +24°C° 0 mm 1 m/S 667 mmHg 67%
09:00 +26°C° 0 mm 1 m/S 668 mmHg 57%
10:00 +29°C° 0 mm 1 m/S 669 mmHg 48%
11:00 +30°C° 0 mm 1 m/S 669 mmHg 46%
12:00 +30°C° 0 mm 2 m/S 668 mmHg 43%
13:00 +31°C° 0 mm 2 m/S 668 mmHg 41%
14:00 +31°C° 0 mm 2 m/S 668 mmHg 43%
15:00 +30°C° 0 mm 2 m/S 667 mmHg 45%
16:00 +29°C° 0 mm 2 m/S 666 mmHg 47%
17:00 +27°C° 0 mm 2 m/S 666 mmHg 55%
18:00 +25°C° 0 mm 2 m/S 666 mmHg 62%
19:00 +23°C° 0 mm 2 m/S 666 mmHg 70%
20:00 +23°C° 0 mm 1 m/S 666 mmHg 73%
21:00 +22°C° 0 mm 1 m/S 667 mmHg 75%
22:00 +22°C° 0 mm 1 m/S 667 mmHg 78%
23:00 +22°C° 0 mm 1 m/S 667 mmHg 79%

9 August, Sonntag

Zeit Temperatur Niederschläge Wind Luftdruck Luftfeuchtigkeit
00:00 +21°C° 0 mm 1 m/S 666 mmHg 80%
01:00 +21°C° 0 mm 1 m/S 666 mmHg 81%
02:00 +21°C° 0 mm 1 m/S 666 mmHg 81%
03:00 +21°C° 0 mm 1 m/S 665 mmHg 82%
04:00 +20°C° 0 mm 1 m/S 665 mmHg 82%
05:00 +21°C° 0 mm 1 m/S 665 mmHg 81%
06:00 +21°C° 0 mm 1 m/S 666 mmHg 79%
07:00 +22°C° 0 mm 1 m/S 666 mmHg 78%
08:00 +24°C° 0 mm 1 m/S 667 mmHg 69%
09:00 +26°C° 0 mm 1 m/S 668 mmHg 60%
10:00 +28°C° 0 mm 1 m/S 668 mmHg 52%
11:00 +30°C° 0 mm 1 m/S 668 mmHg 48%
12:00 +31°C° 0 mm 1 m/S 668 mmHg 44%
13:00 +32°C° 0 mm 1 m/S 668 mmHg 40%
14:00 +31°C° 0.1 mm 2 m/S 667 mmHg 45%
15:00 +29°C° 0.1 mm 2 m/S 666 mmHg 51%
16:00 +28°C° 0.1 mm 2 m/S 665 mmHg 56%
17:00 +26°C° 0.1 mm 2 m/S 665 mmHg 64%
18:00 +25°C° 0.1 mm 2 m/S 665 mmHg 72%
19:00 +23°C° 0.1 mm 2 m/S 665 mmHg 80%
20:00 +21°C° 0 mm 2 m/S 665 mmHg 80%
21:00 +22°C° 0 mm 1 m/S 666 mmHg 80%
22:00 +22°C° 0 mm 1 m/S 666 mmHg 81%
23:00 +21°C° 0 mm 1 m/S 666 mmHg 81%

10 August, Montag

Zeit Temperatur Niederschläge Wind Luftdruck Luftfeuchtigkeit
00:00 +21°C° 0 mm 1 m/S 665 mmHg 82%
01:00 +21°C° 0 mm 1 m/S 665 mmHg 82%
02:00 +21°C° 0 mm 1 m/S 665 mmHg 82%
03:00 +20°C° 0 mm 1 m/S 664 mmHg 82%
04:00 +20°C° 0 mm 1 m/S 664 mmHg 82%
05:00 +21°C° 0 mm 1 m/S 665 mmHg 80%
06:00 +21°C° 0 mm 1 m/S 665 mmHg 79%
07:00 +21°C° 0 mm 1 m/S 665 mmHg 77%
08:00 +24°C° 0 mm 1 m/S 666 mmHg 68%
09:00 +26°C° 0 mm 1 m/S 667 mmHg 59%
10:00 +29°C° 0 mm 1 m/S 667 mmHg 50%
11:00 +30°C° 0 mm 1 m/S 667 mmHg 46%
12:00 +31°C° 0 mm 1 m/S 667 mmHg 42%
13:00 +33°C° 0 mm 1 m/S 666 mmHg 38%
14:00 +31°C° 0.1 mm 2 m/S 666 mmHg 44%
15:00 +30°C° 0.1 mm 2 m/S 665 mmHg 49%
16:00 +29°C° 0.1 mm 2 m/S 664 mmHg 55%
17:00 +27°C° 0.1 mm 2 m/S 664 mmHg 64%
18:00 +25°C° 0.1 mm 2 m/S 664 mmHg 73%
19:00 +23°C° 0.1 mm 2 m/S 664 mmHg 83%
20:00 +22°C° 0 mm 1 m/S 664 mmHg 84%
21:00 +22°C° 0 mm 1 m/S 664 mmHg 84%
22:00 +21°C° 0 mm 1 m/S 665 mmHg 85%
23:00 +21°C° 0 mm 1 m/S 665 mmHg 86%
Mehr zeigen